WD6AWP Weather Reports


time (UTC)temp
F
wind
direction
speed
knots
gust
knots
rain 1hr
in
rain 24hr
in
rain mn
in
humidity
%
barometer
mb
20260901150027 71 300 0.0 0.0 0.00 0.00 0.00 83 1015.0
20260901144528 69 300 0.0 0.0 0.00 0.00 0.00 84 1015.0
20260901143021 68 300 0.0 0.0 0.00 0.00 0.00 86 1015.0
20260901141521 68 303 1.7 4.3 0.00 0.00 0.00 86 1015.0
20260901140017 68 306 0.9 4.3 0.00 0.00 0.00 86 1014.8
20260901134515 68 327 0.0 0.0 0.00 0.00 0.00 87 1014.5
20260901133015 68 327 1.7 4.3 0.00 0.00 0.00 87 1014.3
20260901131517 68 319 1.7 4.3 0.00 0.00 0.00 87 1014.2
20260901130014 68 311 0.0 0.0 0.00 0.00 0.00 88 1014.1
20260901124533 68 332 0.0 3.5 0.00 0.00 0.00 88 1014.1
20260901123013 68 360 0.0 2.6 0.00 0.00 0.00 88 1014.0
20260901121512 67 18 0.0 0.0 0.00 0.00 0.00 89 1013.9
20260901120011 67 12 0.0 0.9 0.00 0.00 0.00 90 1013.9
20260901114511 67 14 1.7 5.2 0.00 0.00 0.00 91 1013.7
20260901113010 67 27 1.7 3.5 0.00 0.00 0.00 91 1013.8
20260901111510 66 5 0.0 0.0 0.00 0.00 0.00 91 1014.0
20260901110009 66 5 0.9 2.6 0.00 0.00 0.00 92 1014.1
20260901104509 66 279 0.0 0.0 0.00 0.00 0.00 92 1014.2
20260901103007 66 279 0.0 0.0 0.00 0.00 0.00 92 1014.2
20260901101507 66 279 0.0 0.0 0.00 0.00 0.00 91 1014.1
20260901100005 66 278 0.0 0.0 0.00 0.00 0.00 91 1014.1
20260901094506 66 278 0.0 0.0 0.00 0.00 0.00 91 1014.1
20260901093002 66 278 0.0 0.0 0.00 0.00 0.00 91 1014.2
20260901091618 67 278 0.0 0.0 0.00 0.00 0.00 90 1014.0
20260901090105 67 279 0.0 0.0 0.00 0.00 0.00 90 1014.0
20260901084607 67 279 0.0 0.0 0.00 0.00 0.00 90 1014.0
20260901083104 68 279 0.0 0.0 0.00 0.00 0.00 90 1014.2
20260901081555 68 279 0.0 2.6 0.00 0.00 0.00 90 1014.1
20260901074552 68 278 0.0 0.0 0.00 0.00 0.00 89 1014.3
20260901073050 68 279 0.0 0.0 0.00 0.00 0.00 89 1014.4
20260901071549 68 279 0.0 3.5 0.00 0.00 0.00 89 1014.3
20260901070049 68 278 1.7 4.3 0.00 0.00 0.00 89 1014.3
20260901064544 69 278 0.0 0.0 0.00 0.00 0.00 89 1014.1
20260901063051 69 279 0.0 0.0 0.00 0.00 0.00 89 1014.0
20260901061543 69 279 0.0 6.1 0.00 0.00 0.00 88 1013.9
20260901060041 69 288 0.0 4.3 0.00 0.00 0.00 88 1013.8
20260901054540 69 284 2.6 6.1 0.00 0.00 0.00 88 1013.7
20260901053040 69 296 2.6 7.0 0.00 0.00 0.00 88 1013.7
20260901051539 69 280 0.9 6.1 0.00 0.00 0.00 87 1013.7
20260901050038 69 291 0.0 7.0 0.00 0.00 0.00 87 1013.5
20260901044538 70 288 1.7 7.0 0.00 0.00 0.00 87 1013.4
20260901043038 70 267 3.5 7.0 0.00 0.00 0.00 87 1013.4
20260901041537 70 286 1.7 7.0 0.00 0.00 0.00 86 1013.4
20260901040040 70 302 2.6 8.7 0.00 0.00 0.00 86 1013.2
20260901034539 71 289 0.0 6.1 0.00 0.00 0.00 85 1012.9
20260901033035 71 283 1.7 7.0 0.00 0.00 0.00 85 1012.5
20260901031537 71 281 2.6 6.1 0.00 0.00 0.00 86 1012.5
20260901030034 71 259 5.2 9.6 0.00 0.00 0.00 85 1012.2
20260901024534 71 282 4.3 10.4 0.00 0.00 0.00 85 1012.1
20260901023033 71 296 5.2 9.6 0.00 0.00 0.00 84 1012.1
20260901021533 72 269 7.0 13.9 0.00 0.00 0.00 84 1012.0
20260901020031 72 277 8.7 14.8 0.00 0.00 0.00 82 1012.0
20260901014531 73 283 9.6 15.6 0.00 0.00 0.00 81 1011.9
20260901013031 74 284 5.2 14.8 0.00 0.00 0.00 82 1012.0
20260901011529 74 262 7.0 13.9 0.00 0.00 0.00 81 1012.1
20260901010037 76 265 7.0 12.2 0.00 0.00 0.00 79 1012.1
20260901004526 76 279 8.7 13.9 0.00 0.00 0.00 79 1012.2
20260901003025 76 272 9.6 16.5 0.00 0.00 0.00 79 1012.3
20260901001626 77 281 7.8 15.6 0.00 0.00 0.00 78 1012.3
20260901000032 77 219 8.7 13.9 0.00 0.00 0.00 78 1012.5
20260831234520 78 273 7.8 15.6 0.00 0.00 0.00 77 1012.4
20260831233019 80 207 6.1 11.3 0.00 0.00 0.00 74 1012.4
20260831231519 80 269 7.0 11.3 0.00 0.00 0.00 73 1012.5
20260831230018 79 219 5.2 12.2 0.00 0.00 0.00 74 1012.6
20260831224518 79 227 7.0 11.3 0.00 0.00 0.00 74 1012.7
20260831223023 79 221 5.2 13.0 0.00 0.00 0.00 75 1012.8
20260831221520 79 259 4.3 10.4 0.00 0.00 0.00 75 1013.0
20260831220016 79 243 3.5 10.4 0.00 0.00 0.00 75 1013.0
20260831214515 80 234 5.2 10.4 0.00 0.00 0.00 74 1013.1
20260831213015 79 264 7.0 12.2 0.00 0.00 0.00 75 1013.3
20260831211515 79 261 6.1 12.2 0.00 0.00 0.00 75 1013.5
20260831210028 80 313 6.1 12.2 0.00 0.00 0.00 75 1013.6
20260831204513 80 194 6.1 12.2 0.00 0.00 0.00 75 1013.6
20260831203012 80 235 5.2 9.6 0.00 0.00 0.00 75 1013.6
20260831201511 80 223 5.2 10.4 0.00 0.00 0.00 75 1013.6
20260831200009 80 238 5.2 12.2 0.00 0.00 0.00 75 1013.7
20260831194508 80 260 4.3 11.3 0.00 0.00 0.00 75 1013.6
20260831193019 80 262 4.3 10.4 0.00 0.00 0.00 76 1013.6
20260831191506 80 269 3.5 7.8 0.00 0.00 0.00 76 1013.7
20260831190005 81 270 4.3 11.3 0.00 0.00 0.00 75 1013.9
20260831184504 81 238 6.1 8.7 0.00 0.00 0.00 74 1013.9
20260831183006 81 230 3.5 7.8 0.00 0.00 0.00 74 1013.9
20260831181502 81 262 2.6 7.0 0.00 0.00 0.00 75 1013.9
20260831180104 80 229 2.6 6.1 0.00 0.00 0.00 75 1013.9
20260831174556 79 264 0.9 7.0 0.00 0.00 0.00 77 1013.8
20260831173100 79 263 3.5 8.7 0.00 0.00 0.00 77 1013.9
20260831171556 79 217 2.6 8.7 0.00 0.00 0.00 78 1013.8
20260831170052 79 225 0.9 7.0 0.00 0.00 0.00 77 1013.6
20260831164605 78 228 0.9 7.0 0.00 0.00 0.00 79 1013.5
20260831163045 77 161 0.9 6.1 0.00 0.00 0.00 81 1013.4
20260831161557 76 275 0.0 2.6 0.00 0.00 0.00 83 1013.4
20260831160042 75 275 0.0 3.5 0.00 0.00 0.00 84 1013.4
20260831154533 74 281 0.0 3.5 0.00 0.00 0.00 86 1013.3
20260831153029 73 281 0.0 2.6 0.00 0.00 0.00 88 1013.3
20260831151527 72 281 0.0 0.0 0.00 0.00 0.00 90 1013.2